Location: Bonny Doon Airfield
(37.0704°N, 122.1252°W)
Time: 20:07:51
(UTC-07:00)

Vanguard 2 - Pass Details

Date: 14 December 2017
Orbit: 553 x 2939 km, 32.9° (Epoch: 21 July)

Event Time Altitude Azimuth Distance (km) Brightness Sun altitude
Rises 17:30:26 0° 265° (W) 3,859 12.8 -7.6°
Reaches altitude 10° 17:33:41 10° 261° (W) 2,576 11.7 -8.2°
Maximum altitude 17:39:13 52° 186° (S) 835 7.9 -9.2°
Drops below altitude 10° 17:43:16 10° 109° (ESE) 1,887 9.1 -10.0°
Enters shadow 17:43:47 - 107° (ESE) 2,094 9.3 -10.1°
Sets 17:45:19 0° 103° (ESE) 2,726 - -10.4°
